www.pogodaiklimat.ru

АРХИВ ПОГОДЫ в Майами

Время (UTC), дата Ветер
(напр.,м/с)
 
Видим.   Явления Облачность Т
(С)
Тd
(С)
f
(%)
Тe
(С)
Тes
(С)
Комфортность

P
(гПа)

Po
(гПа)
Тmin
(С)
Tmax
(С)
R
(мм)
SD
(см)
00:53 16.09 штиль  16 км    8/5 м
[верхняя средняя] 
0.0  0.0  100  -1  -1    1012.8  1012.4  +26.7  +28.3  1.5   
01:53 16.09 штиль  16 км    8/5 м
[верхняя средняя] 
0.0  0.0  100  -1  -1    1012.7  1012.4  +26.7  +28.3  1.5   
02:53 16.09 Ю  16 км    8/5 м
[верхняя средняя] 
0.0  0.0  100  -5  -5    1012.5  1012.1  +26.7  +28.3  1.5   
03:53 16.09 Ю  16 км    8/5 м
[верхняя средняя] 
0.0  0.0  100  -3  -3    1012.4  1012.1  +26.7  +28.3  1.5   
04:53 16.09 Ю  16 км    8/5 м
[верхняя средняя] 
0.0  0.0  100  -3  -3    1011.8  1011.4  +26.7  +28.3  1.5   
05:53 16.09 штиль  16 км    8/5 м
[верхняя средняя] 
0.0  0.0  100  -1  -1    1011.8  1011.4  +25.6  +27.2  1.5   
06:53 16.09 ЮЗ  16 км    8/5 м
[верхняя средняя] 
0.0  0.0  100  -3  -3    1011.4  1011.0  +25.6  +27.2  1.5   
07:53 16.09 штиль  16 км    8/5 м
[верхняя средняя] 
0.0  0.0  100  -1  -1    1011.5  1011.0  +25.6  +27.2  1.5   
08:53 16.09 штиль  16 км    8/5 м
[верхняя средняя] 
0.0  0.0  100  -1  -1    1011.7  1011.4  +25.6  +27.2  1.5   
09:53 16.09 штиль  16 км    8/5 м
[верхняя средняя] 
0.0  0.0  100  -1  -1    1012.2  1011.7  +25.6  +27.2  1.5   
10:53 16.09 штиль  16 км    8/5 м
[верхняя средняя] 
0.0  0.0  100  -1  -1    1012.6  1012.1  +25.6  +27.2  1.5   
11:53 16.09 штиль  16 км    8/5 м
[верхняя средняя] 
0.0  0.0  100  -1  -1    1013.1  1012.7  +26.7  +31.7  1.5   
12:53 16.09 ЮВ  16 км    8/5 м
[верхняя средняя] 
0.0  0.0  100  -5  -3    1013.5  1013.1  +26.7  +31.7  1.5   
13:53 16.09 Ю  16 км    8/5 м
[верхняя средняя] 
0.0  0.0  100  -5  -3    1013.8  1013.4  +26.7  +31.7  1.5   
14:53 16.09 ЮВ  16 км    8/5 м
[верхняя средняя] 
0.0  0.0  100  -6  -3    1013.7  1013.1  +26.7  +31.7  1.5   
15:53 16.09 ЮВ  16 км    8/5 м
[верхняя средняя] 
0.0  0.0  100  -6  -2    1013.6  1013.1  +26.7  +31.7  1.5   
16:53 16.09 ЮВ  16 км    8/5 м
[верхняя средняя] 
0.0  0.0  100  -6  -2    1013.0  1012.7  +26.7  +31.7  1.5   
17:53 16.09 ЮВ  16 км    5/2 м
[верхняя средняя] 
0.0  0.0  100  -6  +1    1012.8  1012.4  +28.9  +32.2  1.5   
18:53 16.09 ЮВ  16 км  слабый дождь  5/2 м
[верхняя средняя] 
0.0  0.0  100  -6  -1    1012.4  1012.1  +28.9  +32.2  1.5   
19:53 16.09 ЮВ  16 км  гроза  5/2 м
[верхняя средняя] 
0.0  0.0  100  -6  -3    1012.3  1011.7  +28.9  +32.2  1.5   
20:53 16.09 ЮВ  16 км    5/2 м
[верхняя средняя] 
0.0  0.0  100  -6  -4    1012.4  1012.1  +28.9  +32.2  1.5   
21:53 16.09 В  16 км    5/2 м
[верхняя средняя] 
0.0  0.0  100  -6  -6    1012.6  1012.1  +28.9  +32.2  1.5   
22:53 16.09 В  16 км    5/2 м
[верхняя средняя] 
0.0  0.0  100  -7  -7    1013.2  1012.7  +28.9  +32.2  1.5   
23:53 16.09 В  16 км    5/0 м
[верхняя] 
0.0  0.0  100  -6  -6    1013.6  1013.1  +27.2  +28.9  1.5   
00:53 17.09 В  16 км  слабый дождь  ясно  0.0  0.0  100  -6  -6    1014.6  1014.1  +27.2  +28.9  1.5   
01:53 17.09 В  16 км    ясно  0.0  0.0  100  -5  -5    1014.8  1014.4  +27.2  +28.9  1.5   
02:53 17.09 В  16 км    8/8 м
[верхняя средняя] 
0.0  0.0  100  -5  -5    1014.9  1014.4  +27.2  +28.9  1.5   
03:53 17.09 В  16 км    8/8 м
[верхняя средняя] 
0.0  0.0  100  -5  -5    1014.2  1013.7  +27.2  +28.9  1.5   
04:53 17.09 В  16 км    8/8 м
[верхняя средняя] 
0.0  0.0  100  -3  -3    1013.8  1013.4  +27.2  +28.9  1.5   
05:53 17.09 В  16 км    8/8 м
[верхняя средняя] 
0.0  0.0  100  -5  -5    1013.4  1013.1  +27.2  +28.3  1.5   
06:53 17.09 ЮВ  16 км    8/8 м
[верхняя средняя] 
0.0  0.0  100  -5  -5    1013.4  1013.1  +27.2  +28.3  1.5   
07:53 17.09 В  16 км    8/8 м
[верхняя средняя] 
0.0  0.0  100  -5  -5    1013.5  1013.1  +27.2  +28.3  1.5   
08:53 17.09 В  16 км    8/8 м
[верхняя средняя] 
0.0  0.0  100  -5  -5    1014.0  1013.4  +27.2  +28.3  1.5   
09:53 17.09 В  16 км    8/8 м
[верхняя средняя] 
0.0  0.0  100  -5  -5    1014.5  1014.1  +27.2  +28.3  1.5   
10:53 17.09 В  16 км    8/8 м
[верхняя средняя] 
0.0  0.0  100  -3  -3    1015.1  1014.8  +27.2  +28.3  1.5   
11:53 17.09 СВ  16 км    8/8 м
[верхняя средняя] 
0.0  0.0  100  -3  -3    1015.2  1014.8  +27.8  +32.2  1.5   
12:53 17.09 В  16 км    8/8 м
[верхняя средняя] 
0.0  0.0  100  -6  -6    1015.5  1015.1  +27.8  +32.2  1.5   
13:53 17.09 В  16 км    8/8 м
[верхняя средняя] 
+31.1  +24.4  68  +44  +45  опасность
перегрева 
1015.8  1015.4  +27.8  +32.2  1.5   
14:53 17.09 В  4
{7} 
16 км    8/8 м
[верхняя средняя] 
+31.0  +24.0  66  +43  +44  опасность
перегрева 
1015.7  1015.4  +27.8  +32.2  1.5   
15:53 17.09 В  16 км    8/8 м
[верхняя средняя] 
+32.0  +24.0  63  +44  +46  опасность
перегрева 
1015.3  1014.8  +27.8  +32.2  1.5   
16:53 17.09 В  16 км    8/8 м
[верхняя] 
+31.7  +24.4  65  +44  +45  опасность
перегрева 
1014.8  1014.4  +27.8  +32.2  1.5   
17:53 17.09 В  16 км    8/5 м
[верхняя] 
+32.0  +26.0  71  +48  +52  опасность
перегрева 
1014.3  1013.7  +28.9  +32.8  1.5   
18:53 17.09 В  4
{10} 
16 км    8/5 м
[верхняя] 
+32.0  +25.0  67  +46  +49  опасность
перегрева 
1013.8  1013.4  +28.9  +32.8  1.5   
19:53 17.09 В  6
{10} 
16 км    8/5 м
[верхняя] 
+31.1  +24.4  68  +44  +45  опасность
перегрева 
1013.4  1013.1  +28.9  +32.8  1.5   
20:53 17.09 В  16 км    5/5 м
[верхняя] 
+31.0  +24.0  66  +43  +44  опасность
перегрева 
1013.5  1013.1  +28.9  +32.8  1.5   
21:53 17.09 В  16 км    5/5 м
[верхняя] 
+30.0  +24.0  70  +41  +42  опасность
перегрева 
1013.3  1012.7  +28.9  +32.8  1.5   
22:53 17.09 В  16 км    2/2 м
[верхняя] 
0.0  0.0  100  -6  -6    1013.6  1013.1  +28.9  +32.8  1.5   
23:53 17.09 В  16 км    ясно  0.0  0.0  100  -6  -6    1014.3  1013.7  +27.8  +28.9  1.5   

 

Местоположение метеостанции Miami International Airport: широта 25.7906 долгота -80.3164 высота над уровнем моря 3 м.

В архиве по умолчанию представлена погода в Майами за последние 1-2 суток. Обновление информации о фактической погоде в базе происходит ежечасно! Архивные данные за месяц целиком и за предыдущие месяцы Вы можете получить, выбрав интересующий диапазон дат из раскрывающегося списка и нажав кнопку "Ввод!".

Внимание! Архив погоды МЕТАР в базе сайта в настоящее время начинается c 1 января 2013 г. Нет смысла пытаться выбрать более раннюю дату.

Внимание! Время в таблицах - всемирное. Для получения местного времени необходимо прибавить поправку, которая в Майами равна -5 ч.

Ветер - указаны скорость ветра в м/с и направление, откуда дует ветер: С - северный, СВ - северо-восточный, В - восточный, ЮВ - юго-восточный, Ю - южный, ЮЗ - юго-западный, З - западный, СЗ - северо-западный.
Видимость - горизонтальная дальность видимости в метрах или километрах. При видимости от 1 до 10 км при отсутствии осадков обычно наблюдается дымка, при ухудшении видимости до 1 км и менее - туман. В сухую погоду видимость может ухудшаться дымом, пылью или мглою.
Атмосферные явления - указаны явления, наблюдавшиеся в указанный момент времени.
Облачность - указаны через наклонную черту верхняя и нижняя облачность в баллах и высота нижней границы облаков в метрах. Внимание: облачность, как и прочие метеорологические величины в США измеряются автоматическими метеостанциями. Указанные значения в баллах носят условный характер и показывают процент времени, в течение которого, в среднем, лазерный луч высотомера отражался от облаков обратно.
T - Температура воздуха - температура, измеренная на высоте 2 м над землей.
Td - Температура точки росы - температура, при понижении до которой содержащийся в воздухе водяной пар достигнет насыщения.
f - Относительная влажность воздуха - влажноcть воздуха, измеренная на высоте 2 м над землей.
Te - Эффективная температура - температура, которую ощущает одетый по сезону человек в тени. Характеристика душности погоды. При расчете учитывается влияние влажности воздуха и скорости ветра на теплоощущения человека.
Tes - Эффективная температура на солнце - температура, которую ощущает человек, с поправкой на солнечный нагрев. Характеристика знойности погоды. Зависит от высоты солнца над горизонтом, облачности и скорости ветра. Ночью, в пасмурную погоду, а также при ветре 12 м/с и более поправка равна нулю.
P - Атмосферное давление - приведенное к уровню моря атмосферное давление.
Po - Атмосферное давление - измеренное на уровне метеостанции атмосферное давление.
Tmin - Минимальная температура - минимум температуры воздуха на высоте 2 м над землей.
Tmax - Максимальная температура - максимум температуры воздуха на высоте 2 м над землей.
R - Количество осадков - Количество выпавших осадков за 3 или 6 часов, мм.
SD - Снежный покров - Высота снежного покрова, см.